When you browse on this site, cookies collect data to enhance your experience and personalize the content and advertising you see.
Visit our Privacy Policy to learn more. By continuing to use the site, you agree to this use of cookies and data.
  • In Hungary
  • List of Countries
  • For 7 days
  • Water Temperature
  • Weather Map
  • News
  • Weather Widgets
  • user-avatar
    Login

    Hourly Weather Pavlov

    Today, 19 October, Saturday

    Time Temperature Precipitation Wind Pressure Humidity
    00:00 +13°C° 0 mm 1 mps 762 mmHg 82%
    01:00 +13°C° 0 mm 1 mps 762 mmHg 82%
    02:00 +13°C° 0 mm 1 mps 762 mmHg 82%
    03:00 +11°C° 0 mm 0 mps 762 mmHg 84%
    04:00 +10°C° 0 mm 0 mps 762 mmHg 84%
    05:00 +10°C° 0 mm 0 mps 763 mmHg 84%
    06:00 +10°C° 0 mm 0 mps 763 mmHg 85%
    07:00 +12°C° 0 mm 1 mps 763 mmHg 79%
    08:00 +14°C° 0 mm 1 mps 763 mmHg 72%
    09:00 +15°C° 0 mm 1 mps 764 mmHg 64%
    10:00 +17°C° 0 mm 2 mps 764 mmHg 59%
    11:00 +18°C° 0 mm 2 mps 764 mmHg 54%
    12:00 +20°C° 0 mm 2 mps 764 mmHg 49%
    13:00 +21°C° 0 mm 2 mps 764 mmHg 46%
    14:00 +21°C° 0 mm 2 mps 763 mmHg 44%
    15:00 +23°C° 0 mm 2 mps 763 mmHg 42%
    16:00 +20°C° 0 mm 2 mps 763 mmHg 48%
    17:00 +19°C° 0 mm 2 mps 763 mmHg 53%
    18:00 +17°C° 0 mm 2 mps 764 mmHg 59%
    19:00 +16°C° 0 mm 2 mps 764 mmHg 61%
    20:00 +15°C° 0 mm 2 mps 764 mmHg 64%
    21:00 +15°C° 0 mm 2 mps 765 mmHg 66%
    22:00 +14°C° 0 mm 2 mps 765 mmHg 67%
    23:00 +14°C° 0 mm 2 mps 765 mmHg 69%

    Tomorrow, 20 October, Sunday

    Time Temperature Precipitation Wind Pressure Humidity
    00:00 +14°C° 0 mm 2 mps 765 mmHg 70%
    01:00 +13°C° 0 mm 2 mps 765 mmHg 71%
    02:00 +13°C° 0 mm 2 mps 765 mmHg 72%
    03:00 +13°C° 0 mm 2 mps 765 mmHg 73%
    04:00 +13°C° 0 mm 2 mps 766 mmHg 74%
    05:00 +11°C° 0 mm 3 mps 766 mmHg 75%
    06:00 +11°C° 0 mm 3 mps 766 mmHg 76%
    07:00 +12°C° 0 mm 3 mps 766 mmHg 70%
    08:00 +14°C° 0 mm 3 mps 766 mmHg 64%
    09:00 +16°C° 0 mm 3 mps 767 mmHg 58%
    10:00 +18°C° 0 mm 4 mps 767 mmHg 53%
    11:00 +20°C° 0 mm 4 mps 767 mmHg 48%
    12:00 +22°C° 0 mm 4 mps 766 mmHg 43%
    13:00 +22°C° 0 mm 4 mps 766 mmHg 42%
    14:00 +22°C° 0 mm 4 mps 766 mmHg 41%
    15:00 +23°C° 0 mm 4 mps 766 mmHg 40%
    16:00 +21°C° 0 mm 4 mps 766 mmHg 46%
    17:00 +19°C° 0 mm 4 mps 766 mmHg 51%
    18:00 +17°C° 0 mm 4 mps 766 mmHg 57%
    19:00 +17°C° 0 mm 4 mps 767 mmHg 59%
    20:00 +16°C° 0 mm 3 mps 767 mmHg 61%
    21:00 +14°C° 0 mm 3 mps 767 mmHg 64%
    22:00 +14°C° 0 mm 3 mps 767 mmHg 66%
    23:00 +13°C° 0 mm 3 mps 767 mmHg 69%

    Day after tomorrow, 21 October, Monday

    Time Temperature Precipitation Wind Pressure Humidity
    00:00 +13°C° 0 mm 3 mps 767 mmHg 72%
    01:00 +12°C° 0 mm 3 mps 767 mmHg 74%
    02:00 +12°C° 0 mm 3 mps 767 mmHg 76%
    03:00 +12°C° 0 mm 3 mps 767 mmHg 79%
    04:00 +11°C° 0 mm 3 mps 768 mmHg 79%
    05:00 +11°C° 0 mm 3 mps 768 mmHg 79%
    06:00 +11°C° 0 mm 3 mps 768 mmHg 80%
    07:00 +12°C° 0 mm 3 mps 768 mmHg 74%
    08:00 +13°C° 0 mm 4 mps 768 mmHg 68%
    09:00 +14°C° 0 mm 4 mps 768 mmHg 62%
    10:00 +17°C° 0 mm 4 mps 768 mmHg 57%
    11:00 +19°C° 0 mm 4 mps 768 mmHg 51%
    12:00 +20°C° 0 mm 4 mps 768 mmHg 46%
    13:00 +21°C° 0 mm 4 mps 768 mmHg 45%
    14:00 +21°C° 0 mm 4 mps 767 mmHg 43%
    15:00 +21°C° 0 mm 4 mps 767 mmHg 42%
    16:00 +19°C° 0 mm 4 mps 767 mmHg 47%
    17:00 +18°C° 0 mm 3 mps 767 mmHg 52%
    18:00 +16°C° 0 mm 3 mps 767 mmHg 58%
    19:00 +14°C° 0 mm 3 mps 767 mmHg 60%
    20:00 +14°C° 0 mm 3 mps 767 mmHg 62%
    21:00 +13°C° 0 mm 3 mps 767 mmHg 65%
    22:00 +12°C° 0 mm 3 mps 767 mmHg 66%
    23:00 +13°C° 0 mm 2 mps 767 mmHg 67%

    22 October, Tuesday

    Time Temperature Precipitation Wind Pressure Humidity
    00:00 +13°C° 0 mm 2 mps 767 mmHg 68%
    01:00 +12°C° 0 mm 2 mps 767 mmHg 69%
    02:00 +12°C° 0 mm 2 mps 767 mmHg 71%
    03:00 +12°C° 0 mm 2 mps 767 mmHg 72%
    04:00 +10°C° 0 mm 2 mps 767 mmHg 72%
    05:00 +11°C° 0 mm 1 mps 767 mmHg 73%
    06:00 +11°C° 0 mm 1 mps 767 mmHg 74%
    07:00 +12°C° 0 mm 1 mps 767 mmHg 69%
    08:00 +13°C° 0 mm 1 mps 767 mmHg 64%
    09:00 +15°C° 0 mm 1 mps 767 mmHg 59%
    10:00 +16°C° 0 mm 1 mps 767 mmHg 54%
    11:00 +19°C° 0 mm 1 mps 767 mmHg 49%
    12:00 +20°C° 0 mm 1 mps 767 mmHg 43%
    13:00 +21°C° 0 mm 1 mps 767 mmHg 41%
    14:00 +21°C° 0 mm 1 mps 767 mmHg 39%
    15:00 +22°C° 0 mm 1 mps 766 mmHg 37%
    16:00 +21°C° 0 mm 1 mps 766 mmHg 41%
    17:00 +19°C° 0 mm 1 mps 766 mmHg 45%
    18:00 +18°C° 0 mm 1 mps 766 mmHg 48%
    19:00 +16°C° 0 mm 1 mps 766 mmHg 50%
    20:00 +16°C° 0 mm 1 mps 766 mmHg 52%
    21:00 +15°C° 0 mm 1 mps 766 mmHg 54%
    22:00 +15°C° 0 mm 1 mps 766 mmHg 56%
    23:00 +14°C° 0 mm 1 mps 766 mmHg 58%

    23 October, Wednesday

    Time Temperature Precipitation Wind Pressure Humidity
    00:00 +14°C° 0 mm 1 mps 766 mmHg 61%
    01:00 +12°C° 0 mm 0 mps 766 mmHg 62%
    02:00 +12°C° 0 mm 0 mps 767 mmHg 64%
    03:00 +12°C° 0 mm 0 mps 767 mmHg 65%
    04:00 +11°C° 0 mm 0 mps 767 mmHg 66%
    05:00 +11°C° 0 mm 0 mps 767 mmHg 67%
    06:00 +11°C° 0 mm 0 mps 767 mmHg 67%
    07:00 +12°C° 0 mm 0 mps 767 mmHg 62%
    08:00 +14°C° 0 mm 0 mps 767 mmHg 57%
    09:00 +15°C° 0 mm 0 mps 767 mmHg 53%
    10:00 +17°C° 0 mm 0 mps 767 mmHg 48%
    11:00 +18°C° 0 mm 0 mps 767 mmHg 44%
    12:00 +20°C° 0 mm 0 mps 767 mmHg 39%
    13:00 +20°C° 0 mm 0 mps 766 mmHg 38%
    14:00 +21°C° 0 mm 0 mps 766 mmHg 38%
    15:00 +21°C° 0 mm 0 mps 766 mmHg 37%
    16:00 +19°C° 0 mm 0 mps 766 mmHg 41%
    17:00 +18°C° 0 mm 0 mps 766 mmHg 45%
    18:00 +16°C° 0 mm 0 mps 766 mmHg 49%
    19:00 +16°C° 0 mm 0 mps 766 mmHg 51%
    20:00 +15°C° 0 mm 0 mps 766 mmHg 52%
    21:00 +15°C° 0 mm 0 mps 766 mmHg 54%
    22:00 +15°C° 0 mm 1 mps 766 mmHg 56%
    23:00 +15°C° 0 mm 1 mps 766 mmHg 57%

    24 October, Thursday

    Time Temperature Precipitation Wind Pressure Humidity
    00:00 +14°C° 0 mm 1 mps 766 mmHg 59%
    01:00 +14°C° 0 mm 1 mps 766 mmHg 60%
    02:00 +13°C° 0 mm 0 mps 766 mmHg 62%
    03:00 +12°C° 0 mm 0 mps 766 mmHg 63%
    04:00 +12°C° 0 mm 0 mps 766 mmHg 64%
    05:00 +12°C° 0 mm 0 mps 766 mmHg 65%
    06:00 +11°C° 0 mm 0 mps 766 mmHg 65%
    07:00 +14°C° 0 mm 1 mps 766 mmHg 61%
    08:00 +15°C° 0 mm 1 mps 766 mmHg 56%
    09:00 +16°C° 0 mm 1 mps 766 mmHg 52%
    10:00 +19°C° 0 mm 1 mps 766 mmHg 48%
    11:00 +20°C° 0 mm 1 mps 766 mmHg 44%
    12:00 +22°C° 0 mm 1 mps 766 mmHg 40%
    13:00 +22°C° 0 mm 1 mps 766 mmHg 39%
    14:00 +23°C° 0 mm 1 mps 765 mmHg 38%
    15:00 +23°C° 0 mm 1 mps 765 mmHg 37%
    16:00 +21°C° 0 mm 1 mps 765 mmHg 41%
    17:00 +20°C° 0 mm 1 mps 765 mmHg 45%
    18:00 +18°C° 0 mm 1 mps 765 mmHg 49%
    19:00 +18°C° 0 mm 1 mps 765 mmHg 51%
    20:00 +16°C° 0 mm 2 mps 765 mmHg 53%
    21:00 +15°C° 0 mm 2 mps 765 mmHg 55%
    22:00 +15°C° 0 mm 2 mps 765 mmHg 56%
    23:00 +14°C° 0 mm 1 mps 765 mmHg 57%
    Show more